Year,Month,Day,Hour,Minute,Value (Times are PST for insolation in W/m^2)
2014,10,07,00,00,0.00
2014,10,07,00,01,0.00
2014,10,07,00,02,0.00
2014,10,07,00,03,0.00
2014,10,07,00,04,0.00
2014,10,07,00,05,0.00
2014,10,07,00,06,0.00
2014,10,07,00,07,0.00
2014,10,07,00,08,0.00
2014,10,07,00,09,0.00
2014,10,07,00,10,0.00
2014,10,07,00,11,0.00
2014,10,07,00,12,0.00
2014,10,07,00,13,0.00
2014,10,07,00,14,0.00
2014,10,07,00,15,0.00
2014,10,07,00,16,0.00
2014,10,07,00,17,0.00
2014,10,07,00,18,0.00
2014,10,07,00,19,0.00
2014,10,07,00,20,0.00
2014,10,07,00,21,0.00
2014,10,07,00,22,0.00
2014,10,07,00,23,0.00
2014,10,07,00,24,0.00
2014,10,07,00,25,0.00
2014,10,07,00,26,0.00
2014,10,07,00,27,0.00
2014,10,07,00,28,0.00
2014,10,07,00,29,0.00
2014,10,07,00,30,0.00
2014,10,07,00,31,0.00
2014,10,07,00,32,0.00
2014,10,07,00,33,0.00
2014,10,07,00,34,0.00
2014,10,07,00,35,0.00
2014,10,07,00,36,0.00
2014,10,07,00,37,0.00
2014,10,07,00,38,0.00
2014,10,07,00,39,0.00
2014,10,07,00,40,0.00
2014,10,07,00,41,0.00
2014,10,07,00,42,0.00
2014,10,07,00,43,0.00
2014,10,07,00,44,0.00
2014,10,07,00,45,0.00
2014,10,07,00,46,0.00
2014,10,07,00,47,0.00
2014,10,07,00,48,0.00
2014,10,07,00,49,0.00
2014,10,07,00,50,0.00
2014,10,07,00,51,0.00
2014,10,07,00,52,0.00
2014,10,07,00,53,0.00
2014,10,07,00,54,0.00
2014,10,07,00,55,0.00
2014,10,07,00,56,0.00
2014,10,07,00,57,0.00
2014,10,07,00,58,0.00
2014,10,07,00,59,0.00
2014,10,07,01,00,0.00
2014,10,07,01,01,0.00
2014,10,07,01,02,0.00
2014,10,07,01,03,0.00
2014,10,07,01,04,0.00
2014,10,07,01,05,0.00
2014,10,07,01,06,0.00
2014,10,07,01,07,0.00
2014,10,07,01,08,0.00
2014,10,07,01,09,0.00
2014,10,07,01,10,0.00
2014,10,07,01,11,0.00
2014,10,07,01,12,0.00
2014,10,07,01,13,0.00
2014,10,07,01,14,0.00
2014,10,07,01,15,0.00
2014,10,07,01,16,0.00
2014,10,07,01,17,0.00
2014,10,07,01,18,0.00
2014,10,07,01,19,0.00
2014,10,07,01,20,0.00
2014,10,07,01,21,0.00
2014,10,07,01,22,0.00
2014,10,07,01,23,0.00
2014,10,07,01,24,0.00
2014,10,07,01,25,0.00
2014,10,07,01,26,0.00
2014,10,07,01,27,0.00
2014,10,07,01,28,0.00
2014,10,07,01,29,0.00
2014,10,07,01,30,0.00
2014,10,07,01,31,0.00
2014,10,07,01,32,0.00
2014,10,07,01,33,0.00
2014,10,07,01,34,0.00
2014,10,07,01,35,0.00
2014,10,07,01,36,0.00
2014,10,07,01,37,0.00
2014,10,07,01,38,0.00
2014,10,07,01,39,0.00
2014,10,07,01,40,0.00
2014,10,07,01,41,0.00
2014,10,07,01,42,0.00
2014,10,07,01,43,0.00
2014,10,07,01,44,0.00
2014,10,07,01,45,0.00
2014,10,07,01,46,0.00
2014,10,07,01,47,0.00
2014,10,07,01,48,0.00
2014,10,07,01,49,0.00
2014,10,07,01,50,0.00
2014,10,07,01,51,0.00
2014,10,07,01,52,0.00
2014,10,07,01,53,0.00
2014,10,07,01,54,0.00
2014,10,07,01,55,0.00
2014,10,07,01,56,0.00
2014,10,07,01,57,0.00
2014,10,07,01,58,0.00
2014,10,07,01,59,0.00
2014,10,07,02,00,0.00
2014,10,07,02,01,0.00
2014,10,07,02,02,0.00
2014,10,07,02,03,0.00
2014,10,07,02,04,0.00
2014,10,07,02,05,0.00
2014,10,07,02,06,0.00
2014,10,07,02,07,0.00
2014,10,07,02,08,0.00
2014,10,07,02,09,0.00
2014,10,07,02,10,0.00
2014,10,07,02,11,0.00
2014,10,07,02,12,0.00
2014,10,07,02,13,0.00
2014,10,07,02,14,0.00
2014,10,07,02,15,0.00
2014,10,07,02,16,0.00
2014,10,07,02,17,0.00
2014,10,07,02,18,0.00
2014,10,07,02,19,0.00
2014,10,07,02,20,0.00
2014,10,07,02,21,0.00
2014,10,07,02,22,0.00
2014,10,07,02,23,0.00
2014,10,07,02,24,0.00
2014,10,07,02,25,0.00
2014,10,07,02,26,0.00
2014,10,07,02,27,0.00
2014,10,07,02,28,0.00
2014,10,07,02,29,0.00
2014,10,07,02,30,0.00
2014,10,07,02,31,0.00
2014,10,07,02,32,0.00
2014,10,07,02,33,0.00
2014,10,07,02,34,0.00
2014,10,07,02,35,0.00
2014,10,07,02,36,0.00
2014,10,07,02,37,0.00
2014,10,07,02,38,0.00
2014,10,07,02,39,0.00
2014,10,07,02,40,0.00
2014,10,07,02,41,0.00
2014,10,07,02,42,0.00
2014,10,07,02,43,0.00
2014,10,07,02,44,0.00
2014,10,07,02,45,0.00
2014,10,07,02,46,0.00
2014,10,07,02,47,0.00
2014,10,07,02,48,0.00
2014,10,07,02,49,0.00
2014,10,07,02,50,0.00
2014,10,07,02,51,0.00
2014,10,07,02,52,0.00
2014,10,07,02,53,0.00
2014,10,07,02,54,0.00
2014,10,07,02,55,0.00
2014,10,07,02,56,0.00
2014,10,07,02,57,0.00
2014,10,07,02,58,0.00
2014,10,07,02,59,0.00
2014,10,07,03,00,0.00
2014,10,07,03,01,0.00
2014,10,07,03,02,0.00
2014,10,07,03,03,0.00
2014,10,07,03,04,0.00
2014,10,07,03,05,0.00
2014,10,07,03,06,0.00
2014,10,07,03,07,0.00
2014,10,07,03,08,0.00
2014,10,07,03,09,0.00
2014,10,07,03,10,0.00
2014,10,07,03,11,0.00
2014,10,07,03,12,0.00
2014,10,07,03,13,0.00
2014,10,07,03,14,0.00
2014,10,07,03,15,0.00
2014,10,07,03,16,0.00
2014,10,07,03,17,0.00
2014,10,07,03,18,0.00
2014,10,07,03,19,0.00
2014,10,07,03,20,0.00
2014,10,07,03,21,0.00
2014,10,07,03,22,0.00
2014,10,07,03,23,0.00
2014,10,07,03,24,0.00
2014,10,07,03,25,0.00
2014,10,07,03,26,0.00
2014,10,07,03,27,0.00
2014,10,07,03,28,0.00
2014,10,07,03,29,0.00
2014,10,07,03,30,0.00
2014,10,07,03,31,0.00
2014,10,07,03,32,0.00
2014,10,07,03,33,0.00
2014,10,07,03,34,0.00
2014,10,07,03,35,0.00
2014,10,07,03,36,0.00
2014,10,07,03,37,0.00
2014,10,07,03,38,0.00
2014,10,07,03,39,0.00
2014,10,07,03,40,0.00
2014,10,07,03,41,0.00
2014,10,07,03,42,0.00
2014,10,07,03,43,0.00
2014,10,07,03,44,0.00
2014,10,07,03,45,0.00
2014,10,07,03,46,0.00
2014,10,07,03,47,0.00
2014,10,07,03,48,0.00
2014,10,07,03,49,0.00
2014,10,07,03,50,0.00
2014,10,07,03,51,0.00
2014,10,07,03,52,0.00
2014,10,07,03,53,0.00
2014,10,07,03,54,0.00
2014,10,07,03,55,0.00
2014,10,07,03,56,0.00
2014,10,07,03,57,0.00
2014,10,07,03,58,0.00
2014,10,07,03,59,0.00
2014,10,07,04,00,0.00
2014,10,07,04,01,0.00
2014,10,07,04,02,0.00
2014,10,07,04,03,0.00
2014,10,07,04,04,0.00
2014,10,07,04,05,0.00
2014,10,07,04,06,0.00
2014,10,07,04,07,0.00
2014,10,07,04,08,0.00
2014,10,07,04,09,0.00
2014,10,07,04,10,0.00
2014,10,07,04,11,0.00
2014,10,07,04,12,0.00
2014,10,07,04,13,0.00
2014,10,07,04,14,0.00
2014,10,07,04,15,0.00
2014,10,07,04,16,0.00
2014,10,07,04,17,0.00
2014,10,07,04,18,0.00
2014,10,07,04,19,0.00
2014,10,07,04,20,0.00
2014,10,07,04,21,0.00
2014,10,07,04,22,0.00
2014,10,07,04,23,0.00
2014,10,07,04,24,0.00
2014,10,07,04,25,0.00
2014,10,07,04,26,0.00
2014,10,07,04,27,0.00
2014,10,07,04,28,0.00
2014,10,07,04,29,0.00
2014,10,07,04,30,0.00
2014,10,07,04,31,0.00
2014,10,07,04,32,0.00
2014,10,07,04,33,0.00
2014,10,07,04,34,0.00
2014,10,07,04,35,0.00
2014,10,07,04,36,0.00
2014,10,07,04,37,0.00
2014,10,07,04,38,0.00
2014,10,07,04,39,0.00
2014,10,07,04,40,0.00
2014,10,07,04,41,0.00
2014,10,07,04,42,0.00
2014,10,07,04,43,0.00
2014,10,07,04,44,0.00
2014,10,07,04,45,0.00
2014,10,07,04,46,0.00
2014,10,07,04,47,0.00
2014,10,07,04,48,0.00
2014,10,07,04,49,0.00
2014,10,07,04,50,0.00
2014,10,07,04,51,0.00
2014,10,07,04,52,0.00
2014,10,07,04,53,0.00
2014,10,07,04,54,0.00
2014,10,07,04,55,0.00
2014,10,07,04,56,0.00
2014,10,07,04,57,0.00
2014,10,07,04,58,0.00
2014,10,07,04,59,0.00
2014,10,07,05,00,0.00
2014,10,07,05,01,0.00
2014,10,07,05,02,0.00
2014,10,07,05,03,0.00
2014,10,07,05,04,0.00
2014,10,07,05,05,0.00
2014,10,07,05,06,0.00
2014,10,07,05,07,0.00
2014,10,07,05,08,0.00
2014,10,07,05,09,0.00
2014,10,07,05,10,0.00
2014,10,07,05,11,0.00
2014,10,07,05,12,0.00
2014,10,07,05,13,0.00
2014,10,07,05,14,0.00
2014,10,07,05,15,0.00
2014,10,07,05,16,0.00
2014,10,07,05,17,0.00
2014,10,07,05,18,0.00
2014,10,07,05,19,0.00
2014,10,07,05,20,0.00
2014,10,07,05,21,0.00
2014,10,07,05,22,0.00
2014,10,07,05,23,0.00
2014,10,07,05,24,0.00
2014,10,07,05,25,0.00
2014,10,07,05,26,0.00
2014,10,07,05,27,0.00
2014,10,07,05,28,0.00
2014,10,07,05,29,0.00
2014,10,07,05,30,0.00
2014,10,07,05,31,0.00
2014,10,07,05,32,0.00
2014,10,07,05,33,0.00
2014,10,07,05,34,0.00
2014,10,07,05,35,0.00
2014,10,07,05,36,0.00
2014,10,07,05,37,0.00
2014,10,07,05,38,0.00
2014,10,07,05,39,0.00
2014,10,07,05,40,0.00
2014,10,07,05,41,0.00
2014,10,07,05,42,0.00
2014,10,07,05,43,0.00
2014,10,07,05,44,0.00
2014,10,07,05,45,0.00
2014,10,07,05,46,0.00
2014,10,07,05,47,0.00
2014,10,07,05,48,0.00
2014,10,07,05,49,0.00
2014,10,07,05,50,0.00
2014,10,07,05,51,0.00
2014,10,07,05,52,0.00
2014,10,07,05,53,0.00
2014,10,07,05,54,0.00
2014,10,07,05,55,0.00
2014,10,07,05,56,0.00
2014,10,07,05,57,0.00
2014,10,07,05,58,0.00
2014,10,07,05,59,0.00
2014,10,07,06,00,0.00
2014,10,07,06,01,0.00
2014,10,07,06,02,0.00
2014,10,07,06,03,0.00
2014,10,07,06,04,0.00
2014,10,07,06,05,0.00
2014,10,07,06,06,0.00
2014,10,07,06,07,0.00
2014,10,07,06,08,0.00
2014,10,07,06,09,0.00
2014,10,07,06,10,0.00
2014,10,07,06,11,0.00
2014,10,07,06,12,0.00
2014,10,07,06,13,0.00
2014,10,07,06,14,0.00
2014,10,07,06,15,0.00
2014,10,07,06,16,0.00
2014,10,07,06,17,0.00
2014,10,07,06,18,0.00
2014,10,07,06,19,0.00
2014,10,07,06,20,0.00
2014,10,07,06,21,0.00
2014,10,07,06,22,0.00
2014,10,07,06,23,0.00
2014,10,07,06,24,0.00
2014,10,07,06,25,0.00
2014,10,07,06,26,0.00
2014,10,07,06,27,0.00
2014,10,07,06,28,0.00
2014,10,07,06,29,0.00
2014,10,07,06,30,0.00
2014,10,07,06,31,0.00
2014,10,07,06,32,0.00
2014,10,07,06,33,0.00
2014,10,07,06,34,0.00
2014,10,07,06,35,0.00
2014,10,07,06,36,0.00
2014,10,07,06,37,0.00
2014,10,07,06,38,0.00
2014,10,07,06,39,0.00
2014,10,07,06,40,0.00
2014,10,07,06,41,0.00
2014,10,07,06,42,0.00
2014,10,07,06,43,0.00
2014,10,07,06,44,0.00
2014,10,07,06,45,0.00
2014,10,07,06,46,0.00
2014,10,07,06,47,0.00
2014,10,07,06,48,0.00
2014,10,07,06,49,0.00
2014,10,07,06,50,0.00
2014,10,07,06,51,0.00
2014,10,07,06,52,0.00
2014,10,07,06,53,0.00
2014,10,07,06,54,0.00
2014,10,07,06,55,0.00
2014,10,07,06,56,0.00
2014,10,07,06,57,0.00
2014,10,07,06,58,0.00
2014,10,07,06,59,0.00
2014,10,07,07,00,0.00
2014,10,07,07,01,0.00
2014,10,07,07,02,0.00
2014,10,07,07,03,0.00
2014,10,07,07,04,0.00
2014,10,07,07,05,0.00
2014,10,07,07,06,0.00
2014,10,07,07,07,0.00
2014,10,07,07,08,0.00
2014,10,07,07,09,0.00
2014,10,07,07,10,0.00
2014,10,07,07,11,0.00
2014,10,07,07,12,0.00
2014,10,07,07,13,0.00
2014,10,07,07,14,0.00
2014,10,07,07,15,0.00
2014,10,07,07,16,0.00
2014,10,07,07,17,0.00
2014,10,07,07,18,0.00
2014,10,07,07,19,0.00
2014,10,07,07,20,0.00
2014,10,07,07,21,0.00
2014,10,07,07,22,0.00
2014,10,07,07,23,0.00
2014,10,07,07,24,0.00
2014,10,07,07,25,0.00
2014,10,07,07,26,0.00
2014,10,07,07,27,0.00
2014,10,07,07,28,0.00
2014,10,07,07,29,0.00
2014,10,07,07,30,0.00
2014,10,07,07,31,0.00
2014,10,07,07,32,0.00
2014,10,07,07,33,0.00
2014,10,07,07,34,0.00
2014,10,07,07,35,0.00
2014,10,07,07,36,0.00
2014,10,07,07,37,0.00
2014,10,07,07,38,0.00
2014,10,07,07,39,0.00
2014,10,07,07,40,0.00
2014,10,07,07,41,0.00
2014,10,07,07,42,0.00
2014,10,07,07,43,0.00
2014,10,07,07,44,0.00
2014,10,07,07,45,0.00
2014,10,07,07,46,0.00
2014,10,07,07,47,0.00
2014,10,07,07,48,0.00
2014,10,07,07,49,0.00
2014,10,07,07,50,0.00
2014,10,07,07,51,0.00
2014,10,07,07,52,0.00
2014,10,07,07,53,0.00
2014,10,07,07,54,0.00
2014,10,07,07,55,0.00
2014,10,07,07,56,5.00
2014,10,07,07,57,5.00
2014,10,07,07,58,5.00
2014,10,07,07,59,5.00
2014,10,07,08,00,5.00
2014,10,07,08,01,5.00
2014,10,07,08,02,6.20
2014,10,07,08,03,7.00
2014,10,07,08,04,7.00
2014,10,07,08,05,8.60
2014,10,07,08,06,9.00
2014,10,07,08,07,9.10
2014,10,07,08,08,11.00
2014,10,07,08,09,11.00
2014,10,07,08,10,11.30
2014,10,07,08,11,12.00
2014,10,07,08,12,11.50
2014,10,07,08,13,11.00
2014,10,07,08,14,11.70
2014,10,07,08,15,13.60
2014,10,07,08,16,14.00
2014,10,07,08,17,15.90
2014,10,07,08,18,18.00
2014,10,07,08,19,18.00
2014,10,07,08,20,17.50
2014,10,07,08,21,16.00
2014,10,07,08,22,16.80
2014,10,07,08,23,18.00
2014,10,07,08,24,18.00
2014,10,07,08,25,18.00
2014,10,07,08,26,16.50
2014,10,07,08,27,16.00
2014,10,07,08,28,18.90
2014,10,07,08,29,21.20
2014,10,07,08,30,23.40
2014,10,07,08,31,25.30
2014,10,07,08,32,26.00
2014,10,07,08,33,26.90
2014,10,07,08,34,29.00
2014,10,07,08,35,31.20
2014,10,07,08,36,34.10
2014,10,07,08,37,36.60
2014,10,07,08,38,38.70
2014,10,07,08,39,39.00
2014,10,07,08,40,39.10
2014,10,07,08,41,39.80
2014,10,07,08,42,39.00
2014,10,07,08,43,39.00
2014,10,07,08,44,39.00
2014,10,07,08,45,39.00
2014,10,07,08,46,37.80
2014,10,07,08,47,35.70
2014,10,07,08,48,35.00
2014,10,07,08,49,35.00
2014,10,07,08,50,35.00
2014,10,07,08,51,35.10
2014,10,07,08,52,37.00
2014,10,07,08,53,37.00
2014,10,07,08,54,37.00
2014,10,07,08,55,37.00
2014,10,07,08,56,37.00
2014,10,07,08,57,38.20
2014,10,07,08,58,39.00
2014,10,07,08,59,39.70
2014,10,07,09,00,40.00
2014,10,07,09,01,41.90
2014,10,07,09,02,42.10
2014,10,07,09,03,44.30
2014,10,07,09,04,46.30
2014,10,07,09,05,47.70
2014,10,07,09,06,49.80
2014,10,07,09,07,52.00
2014,10,07,09,08,53.60
2014,10,07,09,09,55.40
2014,10,07,09,10,59.10
2014,10,07,09,11,62.40
2014,10,07,09,12,64.80
2014,10,07,09,13,69.20
2014,10,07,09,14,72.30
2014,10,07,09,15,74.50
2014,10,07,09,16,76.00
2014,10,07,09,17,77.30
2014,10,07,09,18,80.00
2014,10,07,09,19,82.20
2014,10,07,09,20,83.70
2014,10,07,09,21,85.60
2014,10,07,09,22,86.00
2014,10,07,09,23,86.00
2014,10,07,09,24,88.10
2014,10,07,09,25,90.20
2014,10,07,09,26,91.50
2014,10,07,09,27,93.00
2014,10,07,09,28,92.20
2014,10,07,09,29,91.00
2014,10,07,09,30,90.40
2014,10,07,09,31,90.00
2014,10,07,09,32,90.00
2014,10,07,09,33,90.90
2014,10,07,09,34,91.00
2014,10,07,09,35,92.90
2014,10,07,09,36,91.00
2014,10,07,09,37,90.70
2014,10,07,09,38,89.30
2014,10,07,09,39,88.80
2014,10,07,09,40,90.50
2014,10,07,09,41,93.40
2014,10,07,09,42,97.00
2014,10,07,09,43,98.00
2014,10,07,09,44,98.00
2014,10,07,09,45,99.90
2014,10,07,09,46,99.60
2014,10,07,09,47,95.40
2014,10,07,09,48,99.00
2014,10,07,09,49,102.00
2014,10,07,09,50,102.00
2014,10,07,09,51,101.00
2014,10,07,09,52,98.80
2014,10,07,09,53,98.00
2014,10,07,09,54,89.10
2014,10,07,09,55,91.70
2014,10,07,09,56,94.80
2014,10,07,09,57,92.90
2014,10,07,09,58,91.30
2014,10,07,09,59,93.40
2014,10,07,10,00,95.70
2014,10,07,10,01,98.30
2014,10,07,10,02,102.10
2014,10,07,10,03,104.60
2014,10,07,10,04,106.30
2014,10,07,10,05,99.20
2014,10,07,10,06,91.90
2014,10,07,10,07,100.80
2014,10,07,10,08,105.00
2014,10,07,10,09,105.30
2014,10,07,10,10,108.60
2014,10,07,10,11,116.00
2014,10,07,10,12,121.20
2014,10,07,10,13,124.00
2014,10,07,10,14,125.00
2014,10,07,10,15,125.00
2014,10,07,10,16,125.00
2014,10,07,10,17,125.00
2014,10,07,10,18,126.80
2014,10,07,10,19,132.00
2014,10,07,10,20,131.70
2014,10,07,10,21,130.90
2014,10,07,10,22,135.00
2014,10,07,10,23,139.00
2014,10,07,10,24,144.90
2014,10,07,10,25,148.60
2014,10,07,10,26,150.40
2014,10,07,10,27,149.40
2014,10,07,10,28,149.00
2014,10,07,10,29,150.90
2014,10,07,10,30,155.20
2014,10,07,10,31,158.40
2014,10,07,10,32,160.00
2014,10,07,10,33,161.00
2014,10,07,10,34,166.40
2014,10,07,10,35,173.40
2014,10,07,10,36,177.70
2014,10,07,10,37,174.30
2014,10,07,10,38,159.40
2014,10,07,10,39,146.00
2014,10,07,10,40,145.80
2014,10,07,10,41,155.20
2014,10,07,10,42,158.00
2014,10,07,10,43,156.40
2014,10,07,10,44,149.30
2014,10,07,10,45,145.20
2014,10,07,10,46,145.00
2014,10,07,10,47,147.70
2014,10,07,10,48,153.00
2014,10,07,10,49,157.20
2014,10,07,10,50,161.30
2014,10,07,10,51,162.00
2014,10,07,10,52,156.00
2014,10,07,10,53,156.70
2014,10,07,10,54,161.30
2014,10,07,10,55,168.00
2014,10,07,10,56,179.70
2014,10,07,10,57,195.30
2014,10,07,10,58,204.40
2014,10,07,10,59,204.70
2014,10,07,11,00,201.00
2014,10,07,11,01,199.10
2014,10,07,11,02,199.90
2014,10,07,11,03,202.40
2014,10,07,11,04,208.30
2014,10,07,11,05,214.50
2014,10,07,11,06,215.00
2014,10,07,11,07,210.10
2014,10,07,11,08,209.60
2014,10,07,11,09,225.40
2014,10,07,11,10,240.70
2014,10,07,11,11,248.40
2014,10,07,11,12,255.70
2014,10,07,11,13,263.20
2014,10,07,11,14,269.00
2014,10,07,11,15,268.70
2014,10,07,11,16,267.00
2014,10,07,11,17,270.00
2014,10,07,11,18,278.00
2014,10,07,11,19,284.40
2014,10,07,11,20,288.00
2014,10,07,11,21,291.90
2014,10,07,11,22,287.30
2014,10,07,11,23,285.00
2014,10,07,11,24,248.60
2014,10,07,11,25,229.90
2014,10,07,11,26,231.50
2014,10,07,11,27,250.70
2014,10,07,11,28,270.70
2014,10,07,11,29,308.10
2014,10,07,11,30,358.20
2014,10,07,11,31,423.30
2014,10,07,11,32,420.70
2014,10,07,11,33,433.80
2014,10,07,11,34,379.20
2014,10,07,11,35,318.60
2014,10,07,11,36,281.40
2014,10,07,11,37,261.30
2014,10,07,11,38,254.60
2014,10,07,11,39,246.70
2014,10,07,11,40,249.20
2014,10,07,11,41,252.90
2014,10,07,11,42,269.40
2014,10,07,11,43,307.00
2014,10,07,11,44,345.90
2014,10,07,11,45,355.00
2014,10,07,11,46,355.00
2014,10,07,11,47,368.90
2014,10,07,11,48,539.60
2014,10,07,11,49,510.00
2014,10,07,11,50,470.30
2014,10,07,11,51,455.70
2014,10,07,11,52,461.00
2014,10,07,11,53,484.40
2014,10,07,11,54,470.00
2014,10,07,11,55,444.20
2014,10,07,11,56,468.30
2014,10,07,11,57,473.20
2014,10,07,11,58,464.00
2014,10,07,11,59,502.80
2014,10,07,12,00,507.60
2014,10,07,12,01,495.00
2014,10,07,12,02,510.40
2014,10,07,12,03,521.90
2014,10,07,12,04,478.50
2014,10,07,12,05,459.30
2014,10,07,12,06,456.60
2014,10,07,12,07,480.40
2014,10,07,12,08,491.50
2014,10,07,12,09,465.90
2014,10,07,12,10,462.60
2014,10,07,12,11,433.90
2014,10,07,12,12,360.00
2014,10,07,12,13,384.40
2014,10,07,12,14,379.60
2014,10,07,12,15,362.70
2014,10,07,12,16,381.00
2014,10,07,12,17,437.30
2014,10,07,12,18,463.00
2014,10,07,12,19,500.10
2014,10,07,12,20,504.00
2014,10,07,12,21,500.20
2014,10,07,12,22,484.60
2014,10,07,12,23,488.30
2014,10,07,12,24,479.30
2014,10,07,12,25,446.70
2014,10,07,12,26,464.30
2014,10,07,12,27,485.30
2014,10,07,12,28,526.00
2014,10,07,12,29,552.90
2014,10,07,12,30,578.10
2014,10,07,12,31,611.50
2014,10,07,12,32,609.10
2014,10,07,12,33,637.10
2014,10,07,12,34,632.00
2014,10,07,12,35,608.60
2014,10,07,12,36,622.60
2014,10,07,12,37,619.90
2014,10,07,12,38,608.30
2014,10,07,12,39,563.70
2014,10,07,12,40,504.40
2014,10,07,12,41,478.00
2014,10,07,12,42,553.00
2014,10,07,12,43,569.50
2014,10,07,12,44,583.00
2014,10,07,12,45,602.00
2014,10,07,12,46,613.70
2014,10,07,12,47,602.40
2014,10,07,12,48,559.10
2014,10,07,12,49,562.00
2014,10,07,12,50,554.50
2014,10,07,12,51,496.70
2014,10,07,12,52,459.10
2014,10,07,12,53,377.70
2014,10,07,12,54,382.20
2014,10,07,12,55,424.10
2014,10,07,12,56,443.00
2014,10,07,12,57,450.10
2014,10,07,12,58,483.30
2014,10,07,12,59,553.20
2014,10,07,13,00,577.90
2014,10,07,13,01,571.60
2014,10,07,13,02,511.80
2014,10,07,13,03,482.10
2014,10,07,13,04,521.30
2014,10,07,13,05,553.40
2014,10,07,13,06,578.60
2014,10,07,13,07,601.00
2014,10,07,13,08,606.00
2014,10,07,13,09,613.10
2014,10,07,13,10,617.90
2014,10,07,13,11,615.70
2014,10,07,13,12,622.20
2014,10,07,13,13,628.10
2014,10,07,13,14,646.80
2014,10,07,13,15,628.90
2014,10,07,13,16,605.80
2014,10,07,13,17,622.40
2014,10,07,13,18,624.00
2014,10,07,13,19,630.50
2014,10,07,13,20,631.30
2014,10,07,13,21,593.10
2014,10,07,13,22,522.70
2014,10,07,13,23,559.00
2014,10,07,13,24,634.60
2014,10,07,13,25,647.00
2014,10,07,13,26,585.80
2014,10,07,13,27,508.00
2014,10,07,13,28,476.40
2014,10,07,13,29,371.70
2014,10,07,13,30,399.70
2014,10,07,13,31,429.80
2014,10,07,13,32,487.00
2014,10,07,13,33,546.70
2014,10,07,13,34,559.00
2014,10,07,13,35,600.60
2014,10,07,13,36,620.20
2014,10,07,13,37,605.40
2014,10,07,13,38,568.10
2014,10,07,13,39,551.70
2014,10,07,13,40,597.90
2014,10,07,13,41,620.20
2014,10,07,13,42,622.00
2014,10,07,13,43,622.00
2014,10,07,13,44,630.20
2014,10,07,13,45,637.20
2014,10,07,13,46,615.20
2014,10,07,13,47,605.60
2014,10,07,13,48,565.50
2014,10,07,13,49,558.10
2014,10,07,13,50,510.80
2014,10,07,13,51,461.00
2014,10,07,13,52,447.50
2014,10,07,13,53,451.20
2014,10,07,13,54,471.10
2014,10,07,13,55,458.30
2014,10,07,13,56,443.00
2014,10,07,13,57,443.00
2014,10,07,13,58,539.30
2014,10,07,13,59,532.90
2014,10,07,14,00,512.50
2014,10,07,14,01,491.70
2014,10,07,14,02,560.00
2014,10,07,14,03,564.90
2014,10,07,14,04,520.40
2014,10,07,14,05,475.40
2014,10,07,14,06,446.40
2014,10,07,14,07,424.90
2014,10,07,14,08,429.80
2014,10,07,14,09,418.70
2014,10,07,14,10,419.10
2014,10,07,14,11,475.80
2014,10,07,14,12,485.80
2014,10,07,14,13,473.50
2014,10,07,14,14,520.10
2014,10,07,14,15,572.10
2014,10,07,14,16,584.00
2014,10,07,14,17,502.40
2014,10,07,14,18,505.10
2014,10,07,14,19,478.00
2014,10,07,14,20,466.10
2014,10,07,14,21,396.10
2014,10,07,14,22,397.20
2014,10,07,14,23,470.20
2014,10,07,14,24,504.40
2014,10,07,14,25,533.60
2014,10,07,14,26,536.90
2014,10,07,14,27,541.00
2014,10,07,14,28,515.80
2014,10,07,14,29,501.00
2014,10,07,14,30,373.90
2014,10,07,14,31,396.60
2014,10,07,14,32,418.40
2014,10,07,14,33,443.30
2014,10,07,14,34,441.90
2014,10,07,14,35,424.80
2014,10,07,14,36,408.50
2014,10,07,14,37,396.90
2014,10,07,14,38,388.70
2014,10,07,14,39,403.20
2014,10,07,14,40,420.10
2014,10,07,14,41,398.90
2014,10,07,14,42,328.10
2014,10,07,14,43,353.70
2014,10,07,14,44,366.60
2014,10,07,14,45,389.30
2014,10,07,14,46,377.30
2014,10,07,14,47,374.70
2014,10,07,14,48,376.60
2014,10,07,14,49,365.80
2014,10,07,14,50,359.40
2014,10,07,14,51,359.70
2014,10,07,14,52,369.00
2014,10,07,14,53,377.20
2014,10,07,14,54,407.00
2014,10,07,14,55,410.40
2014,10,07,14,56,425.20
2014,10,07,14,57,462.70
2014,10,07,14,58,446.30
2014,10,07,14,59,438.50
2014,10,07,15,00,422.90
2014,10,07,15,01,385.80
2014,10,07,15,02,380.00
2014,10,07,15,03,348.80
2014,10,07,15,04,315.90
2014,10,07,15,05,341.70
2014,10,07,15,06,404.60
2014,10,07,15,07,430.60
2014,10,07,15,08,442.90
2014,10,07,15,09,431.40
2014,10,07,15,10,452.90
2014,10,07,15,11,447.10
2014,10,07,15,12,461.90
2014,10,07,15,13,470.10
2014,10,07,15,14,455.10
2014,10,07,15,15,454.70
2014,10,07,15,16,479.10
2014,10,07,15,17,457.30
2014,10,07,15,18,446.80
2014,10,07,15,19,398.70
2014,10,07,15,20,378.20
2014,10,07,15,21,365.40
2014,10,07,15,22,378.70
2014,10,07,15,23,379.20
2014,10,07,15,24,386.70
2014,10,07,15,25,407.50
2014,10,07,15,26,419.00
2014,10,07,15,27,474.80
2014,10,07,15,28,499.70
2014,10,07,15,29,481.70
2014,10,07,15,30,427.00
2014,10,07,15,31,436.90
2014,10,07,15,32,426.00
2014,10,07,15,33,421.70
2014,10,07,15,34,393.30
2014,10,07,15,35,381.00
2014,10,07,15,36,395.70
2014,10,07,15,37,415.90
2014,10,07,15,38,463.30
2014,10,07,15,39,453.70
2014,10,07,15,40,458.70
2014,10,07,15,41,467.20
2014,10,07,15,42,432.00
2014,10,07,15,43,363.60
2014,10,07,15,44,324.40
2014,10,07,15,45,349.30
2014,10,07,15,46,367.00
2014,10,07,15,47,375.40
2014,10,07,15,48,379.60
2014,10,07,15,49,381.40
2014,10,07,15,50,395.00
2014,10,07,15,51,396.80
2014,10,07,15,52,375.90
2014,10,07,15,53,330.70
2014,10,07,15,54,323.90
2014,10,07,15,55,376.10
2014,10,07,15,56,383.00
2014,10,07,15,57,308.50
2014,10,07,15,58,278.70
2014,10,07,15,59,249.60
2014,10,07,16,00,257.30
2014,10,07,16,01,254.20
2014,10,07,16,02,301.30
2014,10,07,16,03,363.10
2014,10,07,16,04,413.40
2014,10,07,16,05,441.10
2014,10,07,16,06,402.80
2014,10,07,16,07,349.50
2014,10,07,16,08,368.30
2014,10,07,16,09,353.80
2014,10,07,16,10,372.70
2014,10,07,16,11,395.50
2014,10,07,16,12,329.90
2014,10,07,16,13,353.00
2014,10,07,16,14,396.30
2014,10,07,16,15,468.60
2014,10,07,16,16,420.10
2014,10,07,16,17,476.80
2014,10,07,16,18,503.30
2014,10,07,16,19,486.10
2014,10,07,16,20,490.30
2014,10,07,16,21,477.80
2014,10,07,16,22,465.00
2014,10,07,16,23,448.90
2014,10,07,16,24,428.10
2014,10,07,16,25,415.00
2014,10,07,16,26,402.30
2014,10,07,16,27,395.40
2014,10,07,16,28,400.90
2014,10,07,16,29,393.30
2014,10,07,16,30,367.30
2014,10,07,16,31,355.90
2014,10,07,16,32,326.70
2014,10,07,16,33,307.60
2014,10,07,16,34,257.90
2014,10,07,16,35,249.40
2014,10,07,16,36,235.40
2014,10,07,16,37,276.00
2014,10,07,16,38,297.80
2014,10,07,16,39,311.80
2014,10,07,16,40,341.30
2014,10,07,16,41,317.20
2014,10,07,16,42,261.20
2014,10,07,16,43,168.30
2014,10,07,16,44,192.90
2014,10,07,16,45,256.10
2014,10,07,16,46,301.00
2014,10,07,16,47,318.00
2014,10,07,16,48,292.00
2014,10,07,16,49,241.00
2014,10,07,16,50,287.70
2014,10,07,16,51,285.00
2014,10,07,16,52,283.50
2014,10,07,16,53,268.80
2014,10,07,16,54,207.10
2014,10,07,16,55,245.80
2014,10,07,16,56,213.90
2014,10,07,16,57,189.10
2014,10,07,16,58,183.90
2014,10,07,16,59,173.10
2014,10,07,17,00,164.90
2014,10,07,17,01,157.00
2014,10,07,17,02,145.70
2014,10,07,17,03,130.10
2014,10,07,17,04,119.30
2014,10,07,17,05,110.00
2014,10,07,17,06,105.10
2014,10,07,17,07,103.40
2014,10,07,17,08,99.60
2014,10,07,17,09,97.70
2014,10,07,17,10,97.00
2014,10,07,17,11,97.50
2014,10,07,17,12,98.00
2014,10,07,17,13,99.30
2014,10,07,17,14,103.70
2014,10,07,17,15,112.30
2014,10,07,17,16,129.40
2014,10,07,17,17,137.10
2014,10,07,17,18,139.40
2014,10,07,17,19,141.30
2014,10,07,17,20,137.30
2014,10,07,17,21,133.20